Showing default

USA 164, 27168

Orbit data source: Space-Track

USA 164, 27168 is a payload satellite owned by USAF SMC (US) in GEO that was launched on Mon, 14 Jan 2002 UTC via a TITAN 401B/CENTAUR launch vehicle from the Air Force Eastern Test Range (AFETR). Payloads include a variety of satellites, spacecraft, and rockets equipped with specific instruments for various scientific and technological missions. These include communications satellites like Starlink; space stations such as the ISS; scientific satellites like the Hubble; Earth observation satellites from companies like Planet Labs, Umbra, and HawkEye 360; GPS; miniature CubeSats for education and research; and military/defense satellites.

Not visible in the next 10 days
USA 164 details
Identifier
27168, 2002-001A
Orbit
GEO
Last TLE update17 hours ago
Origin
Flag of USUSAF SMC (US)
ManufacturerLMMS/Sunnyvale
MissionOperational Defense Communications
Bus & MotorMILSTAR, AOCS
Mass4,500 kg wet, ~4,200 kg dry
Launch date (UTC)
2002-01-14 (23 years ago)
Launch vehicle
TITAN 401B/CENTAUR
Launch site
Air Force Eastern Test Range (AFETR)
Object type
Payload
Rocket body
Debris
Shape & HBRCyl + 1 Truss + 1 Ant, 35 m
Radar Cross Section74.603 m²

Expand to show TLE details & history

TLE from 17 hours ago
0 USA 164
1 27168U 02001A   24355.81674958  .00000103  00000-0  00000-0 0  9998
2 27168  10.5311  24.9290 0098179   2.5614  15.3380  1.00273582 27518
Epoch: 2024-12-20T19:36Z
Definitive object data (Epoch: 2024-12-20T19:36:07.163Z)
Latitude3.2798°
Longitude18.9328°
Altitude35,387.059 km
Speed3.104 km/s
True Right ascension02h 51m 21s
True Declination3° 16' 35"
Sunlit
Object was in daylight at TLE epoch
Visualization TLE readout
Latitude-10.54714°
Longitude-86.87026°
Altitude35,788.542 km
Speed3.075 km/s
Apparent Right ascension20h 09m 26s
Apparent Declination-14° 53' 22"
Sunlit
Object is in daylight
Visualization observer readout
Local Sidereal Time11:36:18
Azimuth76.144° E
Elevation-38.617°
Doppler factor1
Orbital elements
Apogee altitude36,201.084 km
Perigee altitude35,373.135 km
Semi-major axis42,165.246 km
Eccentricity0.0098179
Inclination10.5311°
RAAN24.929°
Arg. of periapsis2.5614°
True anomaly15.63915°
Mean anomaly15.338°
Eccentric anomaly15.48822°
Mean motion0.25068 °/min
BSTARUnknown
Orbital period1436.12 mins
Loading historical data...
27168 neighbors
Authenticating...
Loading maneuver chart data...
Loading historical data...
Loading historical data...
Loading historical data...
Loading historical data...
Loading historical data...
Loading historical data...
Loading historical data...
Other satellites on launch #1 in the year 2002 (2002-01-14 UTC)

USA 164 Visibility forecast

Observer location: undefined°, undefined

USA 164 is not visible in the next 10 days
Span
Click to sort rows by Start time (UTC) header in descending order
Start Az.
Max El. time (UTC)
Max El. Az.
Max El.
End time (UTC)
End Az.
|